Regional Weather Roundup
Issued by NWS Sioux Falls, SD

Home | Current Version | Previous Version | Text Only | Print | Product List | Glossary On
Versions: 1 2 3 4 5 6 7 8 9 10 11 12 13 14 15 16 17 18 19 20 21 22 23 24 25 26 27 28 29 30 31 32 33 34 35 36 37 38 39 40 41 42 43 44 45 46 47 48 49 50
299
ASUS43 KFSD 291410
RWRFSD

WEATHER ROUNDUP FOR SE SOUTH DAKOTA/SW MINNESOTA/NW IOWA
NATIONAL WEATHER SERVICE SIOUX FALLS SD
900 AM CDT MON AUG 29 2016

NOTE: "FAIR" INDICATES FEW OR NO CLOUDS BELOW 12,000 FEET WITH NO
SIGNIFICANT WEATHER AND OR OBSTRUCTIONS TO VISIBILITY.


SDZ038>040-050-052>070-291500-
SOUTHEAST SOUTH DAKOTA

CITY           SKY/WX    TMP DP  RH WIND       PRES   REMARKS
BROOKINGS        N/A    N/A N/A N/A MISG        N/A
CHAMBERLAIN    SUNNY     75  65  70 SW9       30.12R
HURON          SUNNY     73  68  84 S8        30.10R
MADISON        FAIR      70  70 100 S5        30.16R
MITCHELL       SUNNY     75  68  78 S9        30.12R
SIOUX FALLS    MOSUNNY   72  68  87 S8        30.16R
WINNER         FAIR      74  63  68 SW16G24   30.12R
YANKTON        MOSUNNY   70  64  83 SE5       30.13S
$$

MNZ071-072-080-081-089-090-097-098-291500-
SOUTHWEST MINNESOTA

CITY           SKY/WX    TMP DP  RH WIND       PRES   REMARKS
FAIRMONT       PTSUNNY   70  66  87 S5        30.22R
JACKSON          N/A     70  64  83 S6        30.21R
LUVERNE        CLOUDY    66  63  88 S6        30.17S
MARSHALL       MOSUNNY   73  67  81 S3        30.17R
MONTEVIDEO     CLOUDY    72  68  88 SE13      30.21R
REDWOOD FALLS  SUNNY     71  65  81 VRB6      30.20R
TRACY          SUNNY     73  67  81 SW8       30.18R
WINDOM         MOSUNNY   72  64  78 S5        30.20R
WORTHINGTON    MOSUNNY   70  65  84 VRB3      30.20R
$$

IAZ001>003-012>014-020>022-031-032-NEZ013-014-SDZ071-291500-
NORTHWEST IOWA

CITY           SKY/WX    TMP DP  RH WIND       PRES   REMARKS
CHEROKEE       SUNNY     72  70  92 S7        30.19R
DENISON        CLOUDY    72  68  88 CALM      30.19R
ESTHERVILLE    PTSUNNY   70  68  93 S7        30.20R
LE MARS        PTSUNNY   73  68  83 S8        30.19R
ORANGE CITY    CLOUDY    70  66  88 S6        30.18S
SHELDON        CLOUDY    68  68 100 S8        30.17R
SIOUX CITY     PTSUNNY   72  67  84 SE7       30.18R
SPENCER        MOSUNNY   73  67  81 S8        30.20R
STORM LAKE     SUNNY     70  68  94 S6        30.21R
$$

ABBREVIATIONS USED IN REMARKS
   TC - TEMPERATURE IN CELSIUS
  WCI - WIND CHILL INDEX
   HX - HEAT INDEX
  VSB - VISIBILITY





USA.gov is the U.S. government's official web portal to all federal, state and local government web resources and services.